星链-34336 (STARLINK-34336)

导读 | 豆包AI

STARLINK-34336是美国太空探索技术公司(SpaceX)于2025年6月18日发射的星链(Starlink)系列卫星,属于星链全球卫星互联网星座的组成部分。 星链计划旨在通过大规模低轨卫星组网,为全球偏远、基础设施匮乏地区提供高速低延迟宽带互联服务,该卫星的发射进一步推进了星链星座的部署进程,助力服务覆盖范围与网络稳定性持续提升。

基本信息
目录编号:
64462
目录名称:
STARLINK-34336
国际标识:
2025-130AA
轨道中心:
EARTH
卫星名称:
星链-34336
卫星全名:
星链-34336 (STARLINK-34336)
卫星状态:
在轨 (已飞行269 天)
发射日期:
2025-06-18 UTC
国别 :
美国 (US)
星等 :
--
轨道信息
数据来源 国际轨道数据 AOE轨道数据
星历时间 2026-03-14T15:26:47+0800
9小时前
查看轨道信息
2026-03-10T02:00:00+0800
4天前
查看轨道信息
半长轴 6853.328km 6853.519km
偏心率 0.0001272 0.0001751
轨道倾角 53.161° 53.158°
近地点辐角 72.793° 81.123°
升交点赤经 69.620° 90.807°
平近点角 287.321° 343.698°
近地点 474.319km 474.181km
远地点 476.063km 476.583km
周期 94.105分钟 94.109分钟
每日圈数 15.302083 15.301443
详细信息
固有亮度:
5
最大亮度:
2.5
卫星平台:
Starlink V1.0
覆盖范围:
全球
运营商:
太空探索技术公司
运营商所在国:
美国
制造商(研发单位):
太空探索技术公司
制造商所在国:
美国
使用方式:
暂无
卫星简介
Starlink 计划是 SpaceX 推出的全球卫星互联网项目,通过发射低轨道卫星,为全球尤其是偏远地区提供高速、低延迟的互联网服务。自 2019 年起,Starlink 已部署数千颗卫星,旨在缩小全球数字鸿沟,推动互联网普及。该项目还为军事、航空等行业提供通信支持,带来广泛经济效益。
2D轨道图
3D轨道图
轨道高度分析图
轨道倾角分析图
轨道综合分析图
查看轨道综合分析图